Regional Weather Roundup
Issued by NWS

Home | Current Version | Previous Version | Graphics & Text | Print | Product List | Glossary On
Versions: 1 2 3 4 5 6 7 8 9 10 11 12 13 14 15 16 17 18 19 20 21 22 23 24 25 26 27 28
000
ASUS45 KSLC 180610
RWRUT

UTAH REGIONAL WEATHER ROUNDUP
NATIONAL WEATHER SERVICE SALT LAKE CITY UT
1200 AM MDT FRI APR 18 2014

UTZ001>011-023>025-180700-

NORTHERN UTAH

CITY           SKY/WX    TMP DP  RH WIND       PRES   REMARKS
HILL AFB       MOCLDY    60  24  25 SE13      29.83F
LOGAN          PTCLDY    45  36  70 NE3       29.83F
OGDEN          MOCLDY    59  28  30 S10       29.81F
PROVO AIRPORT  CLEAR     57  34  41 S16       29.90R
SALT LAKE CITY MOCLDY    62  28  27 SE14      29.81F
VERNAL         CLEAR     44  26  49 W6        30.01R
WENDOVER       MOCLDY    63  27  25 W3        29.78S
HEBER CITY     CLEAR     39  30  70 CALM      29.96R
WEST JORDAN    CLEAR     61  34  36 S15       29.85S

$$

UTZ012>022-026-027-180700-

SOUTHERN UTAH

CITY           SKY/WX    TMP DP  RH WIND       PRES   REMARKS
BRYCE CANYON   PTCLDY    32  22  66 SW6       30.13S WCI  26
CEDAR CITY     MOCLDY    56  18  22 S8        29.99S
MILFORD        MOCLDY    60  20  21 S14       29.94S
MOAB/CYNLANDS  CLEAR     56  22  26 CALM      29.96S
PRICE          CLEAR     47  19  33 NE8       30.03F
ST GEORGE      CLEAR     70  21  16 SE8       29.88S
KANAB            N/A     46  19  34 NE5       30.04R

$$

REGIONAL REPORTS     COLORADO/ARIZONA

CITY           SKY/WX    TMP DP  RH WIND       PRES   REMARKS
CRAIG, CO      CLEAR     36  27  69 E5        30.07R WCI  32
GRAND JUNCTION CLEAR     50  26  39 E9        30.03R
RIFLE          CLEAR     44  27  51 CALM      30.09R
MONTROSE       CLEAR     45  28  51 SE8       30.11R
CORTEZ         CLEAR     37  23  56 CALM      30.12S
PAGE, AZ       PTCLDY    71  21  15 SW12G17   29.94S
GRAND CANYON   MOCLDY    39  16  39 CALM      30.12F
KINGMAN        MOCLDY    65  17  15 S13       29.93F
FLAGSTAFF      MOCLDY    42  18  37 CALM      30.15F

$$

REGIONAL REPORTS    NEVADA/IDAHO/WYOMING

CITY           SKY/WX    TMP DP  RH WIND       PRES   REMARKS
LAS VEGAS, NV  CLOUDY    78  21  12 S12       29.77F
ELY            CLOUDY    57  21  24 S18       29.93S
ELKO           CLOUDY    56  32  40 VRB6      29.81R
POCATELLO, ID  MOCLDY    63  24  22 S25G37    29.75F
BURLEY         CLOUDY    62  30  29 S23G35    29.75R
EVANSTON, WY   PTCLDY    48  20  32 S8        29.98F
ROCK SPRINGS   CLEAR     46  20  35 SW5       30.00F

$$



USA.gov is the U.S. government's official web portal to all federal, state and local government web resources and services.